Weather History for KSBP - January, 2014

Change the Weather History Date:

Saturday, January 25, 2014

  Actual Average Record
Temperature  
Mean Temperature 64 °F -  
Max Temperature 79 °F 65 °F 84 °F (2015)
Min Temperature 48 °F 41 °F 31 °F (1949)
Growing Degree Days 14 (Base 50)    
Moisture  
Dew Point 42 °F    
Average Humidity 53    
Maximum Humidity 75    
Minimum Humidity 15    
Precipitation  
Precipitation 0.00 in - - ()
Sea Level Pressure  
Sea Level Pressure 30.16 in    
Wind  
Wind Speed 3 mph (North)    
Max Wind Speed 9 mph    
Max Gust Speed 31 mph    
Visibility 10 miles    
Events      
Averages and records for this station are not official NWS values.
T = Trace of Precipitation, MM = Missing Value Source: NWS Daily Summary

Daily Weather History Graph

Daily Weather History Graph

Search for Another Location

Airport or City:

Trip Planner

Search our weather history database for the weather conditions in past years. The results will help you decide how hot, cold, wet, or windy it might be!

Date:

Astronomy

Jan. 25, 2014 Rise Set
Actual Time 7:06 AM PST 5:23 PM PST
Civil Twilight 6:39 AM PST 5:50 PM PST
Nautical Twilight 6:08 AM PST 6:21 PM PST
Astronomical Twilight 5:38 AM PST 6:51 PM PST
Moon 1:44 AM PST (1/25) 12:28 PM PST (1/25)
Length of Visible Light 11h 11m
Length of Day
10h 17m
Waning Crescent, 33% of the Moon is Illuminated
Jan 25
Waning Crescent
Jan 30
New
Feb 6
First Quarter
Feb 14
Full
Feb 22
Last Quarter

Hourly Weather History & Observations

Time (PST) Temp. Dew Point Humidity Pressure Visibility Wind Dir Wind Speed Gust Speed Precip Events Conditions
12:56 AM 60.1 °F 46.0 °F 60% 30.19 in 10.0 mi North - - N/A   Clear
1:56 AM 55.9 °F 48.0 °F 75% 30.18 in 10.0 mi ESE 3.5 mph - N/A   Clear
2:56 AM 59.0 °F 46.9 °F 64% 30.19 in 10.0 mi East 5.8 mph 31.1 mph N/A   Clear
3:56 AM 57.0 °F 46.9 °F 69% 30.20 in 10.0 mi Calm Calm - N/A   Clear
4:56 AM 55.9 °F 46.9 °F 72% 30.19 in 10.0 mi Calm Calm - N/A   Clear
5:56 AM 54.0 °F 46.0 °F 75% 30.20 in 10.0 mi Calm Calm - N/A   Clear
6:56 AM 53.1 °F 45.0 °F 74% 30.20 in 10.0 mi Calm Calm - N/A   Clear
7:56 AM 53.1 °F 45.0 °F 74% 30.20 in 10.0 mi Calm Calm - N/A   Clear
8:56 AM 57.0 °F 48.0 °F 72% 30.20 in 10.0 mi Calm Calm - N/A   Mostly Cloudy
9:56 AM 62.1 °F 48.9 °F 62% 30.21 in 10.0 mi East 4.6 mph - N/A   Clear
10:56 AM 66.9 °F 45.0 °F 45% 30.20 in 10.0 mi Calm Calm - N/A   Mostly Cloudy
11:56 AM 72.0 °F 42.1 °F 34% 30.17 in 10.0 mi Calm Calm - N/A   Mostly Cloudy
12:56 PM 79.0 °F 37.9 °F 23% 30.13 in 10.0 mi NNE 4.6 mph - N/A   Overcast
1:56 PM 77.0 °F 25.0 °F 15% 30.12 in 10.0 mi WSW 9.2 mph - N/A   Overcast
2:56 PM 75.0 °F 39.0 °F 27% 30.12 in 10.0 mi NW 6.9 mph - N/A   Overcast
3:56 PM 70.0 °F 44.1 °F 39% 30.12 in 10.0 mi NW 9.2 mph - N/A   Overcast
4:56 PM 66.0 °F 44.1 °F 45% 30.12 in 10.0 mi NW 6.9 mph - N/A   Overcast
5:56 PM 64.0 °F 41.0 °F 43% 30.13 in 10.0 mi WNW 4.6 mph - N/A   Mostly Cloudy
6:56 PM 63.0 °F 39.0 °F 41% 30.13 in 10.0 mi Calm Calm - N/A   Scattered Clouds
7:56 PM 57.9 °F 39.0 °F 49% 30.13 in 10.0 mi Calm Calm - N/A   Clear
8:56 PM 55.0 °F 36.0 °F 49% 30.13 in 10.0 mi Calm Calm - N/A   Clear
9:56 PM 53.1 °F 35.1 °F 50% 30.14 in 10.0 mi East 3.5 mph - N/A   Clear
10:56 PM 50.0 °F 30.9 °F 48% 30.14 in 10.0 mi Calm Calm - N/A   Clear
11:56 PM 48.9 °F 34.0 °F 56% 30.12 in 10.0 mi Calm Calm - N/A   Clear